Wheeler AAF, HI

1:35 PM HST on April 24, 2018 (GMT -1000)
Wheeler Army Air Field

Weather History for PHHI - October, 2011

Change the Weather History Date:

Tuesday, October 4, 2011

  Actual Average Record
Temperature  
Mean Temperature 72 °F -  
Max Temperature 77 °F 81 °F 95 °F (2002)
Min Temperature 68 °F 68 °F 64 °F (2012)
Cooling Degree Days 8    
Growing Degree Days 22 (Base 50)    
Moisture  
Dew Point 63 °F    
Average Humidity 72    
Maximum Humidity 95    
Minimum Humidity 22    
Precipitation  
Precipitation 0.11 in - - ()
Sea Level Pressure  
Sea Level Pressure 30.10 in    
Wind  
Wind Speed 4 mph (East)    
Max Wind Speed 18 mph    
Max Gust Speed 23 mph    
Visibility 9 miles    
Events Rain    
Averages and records for this station are not official NWS values.
T = Trace of Precipitation, MM = Missing Value Source: NWS Daily Summary

Daily Weather History Graph

Daily Weather History Graph

Search for Another Location

Airport or City:

Astronomy

Oct. 04, 2011 Rise Set
Actual Time 6:24 AM HST 6:17 PM HST
Civil Twilight 6:02 AM HST 6:39 PM HST
Nautical Twilight 5:36 AM HST 7:05 PM HST
Astronomical Twilight 5:10 AM HST 7:30 PM HST
Moon 1:42 PM HST (10/4) 12:08 AM HST (10/4)
Length of Visible Light 12h 37m
Length of Day
11h 52m
First Quarter, 58% of the Moon is Illuminated
Oct 4
First Quarter
Oct 11
Full
Oct 19
Last Quarter
Oct 26
New
Nov 2
First Quarter

Hourly Weather History & Observations

Time (HST) Temp. Dew Point Humidity Pressure Visibility Wind Dir Wind Speed Gust Speed Precip Events Conditions
12:31 AM 71.6 °F 30.2 °F 22% 30.12 in 10.0 mi Calm Calm - N/A   Light Drizzle
12:41 AM 71.6 °F 46.4 °F 41% 30.12 in 10.0 mi SSE 3.5 mph - N/A   Scattered Clouds
12:55 AM 71.6 °F 49.1 °F 45% 30.12 in 10.0 mi Calm Calm - 0.00 in   Partly Cloudy
1:00 AM 71.6 °F 51.8 °F 50% 30.11 in 10.0 mi Variable 4.6 mph - N/A   Light Drizzle
1:12 AM 71.6 °F 57.2 °F 60% 30.11 in 10.0 mi ESE 5.8 mph - N/A   Scattered Clouds
1:39 AM 71.6 °F 64.4 °F 78% 30.10 in 10.0 mi East 4.6 mph - N/A   Light Drizzle
1:49 AM 71.6 °F 66.2 °F 83% 30.10 in 10.0 mi East 5.8 mph - N/A   Scattered Clouds
1:55 AM 72.0 °F 66.0 °F 81% 30.10 in 10.0 mi ENE 4.6 mph - 0.00 in   Partly Cloudy
2:11 AM 71.6 °F 66.2 °F 83% 30.10 in 10.0 mi ENE 6.9 mph - N/A   Light Drizzle
2:22 AM 71.6 °F 66.2 °F 83% 30.10 in 10.0 mi NE 5.8 mph - N/A   Clear
2:55 AM 71.6 °F 67.3 °F 86% 30.09 in 10.0 mi Calm Calm - 0.00 in   Clear
3:55 AM 68.7 °F 67.3 °F 95% 30.08 in 10.0 mi Calm Calm - N/A   Mostly Cloudy
4:55 AM 72.1 °F 48.9 °F 44% 30.08 in 10.0 mi Calm Calm - N/A   Partly Cloudy
5:15 AM 71.6 °F 55.4 °F 57% 30.08 in 10.0 mi Calm Calm - N/A   Light Drizzle
5:31 AM 71.6 °F 59.0 °F 64% 30.08 in 10.0 mi Calm Calm - N/A   Mostly Cloudy
5:39 AM 71.6 °F 59.0 °F 64% 30.08 in 10.0 mi Calm Calm - N/A   Light Drizzle
5:55 AM 71.1 °F 60.6 °F 69% 30.09 in 9.0 mi Calm Calm - 0.00 in   Light Drizzle
6:01 AM 69.8 °F 59.0 °F 68% 30.09 in 10.0 mi Calm Calm - N/A   Mostly Cloudy
6:03 AM 69.8 °F 59.0 °F 68% 30.09 in 10.0 mi Variable 3.5 mph - N/A   Mostly Cloudy
6:05 AM 69.8 °F 59.0 °F 68% 30.09 in 10.0 mi NW 3.5 mph - N/A   Light Drizzle
6:06 AM 69.8 °F 60.8 °F 73% 30.09 in 10.0 mi Calm Calm - N/A   Light Drizzle
6:07 AM 69.8 °F 60.8 °F 73% 30.09 in 10.0 mi Calm Calm - N/A   Light Drizzle
6:12 AM 71.6 °F 62.6 °F 73% 30.09 in 10.0 mi Variable 3.5 mph - N/A   Light Drizzle
6:19 AM 71.6 °F 64.4 °F 78% 30.10 in 9.0 mi Calm Calm - N/A Rain Light Rain
6:30 AM 69.8 °F 64.4 °F 83% 30.10 in 6.0 mi Calm Calm - N/A Rain Rain
6:38 AM 69.8 °F 64.4 °F 83% 30.10 in 3.0 mi Variable 3.5 mph - N/A Rain Light Rain
6:51 AM 71.6 °F 57.2 °F 60% 30.10 in 5.0 mi Calm Calm - N/A Rain Light Rain
6:55 AM 70.7 °F 57.7 °F 63% 30.10 in 7.0 mi Calm Calm - 0.02 in   Light Drizzle
7:01 AM 69.8 °F 66.2 °F 88% 30.11 in 10.0 mi Calm Calm - N/A   Scattered Clouds
7:07 AM 71.6 °F 69.8 °F 94% 30.11 in 10.0 mi Calm Calm - N/A   Light Drizzle
7:09 AM 71.6 °F 68.0 °F 88% 30.11 in 8.0 mi Calm Calm - N/A   Light Drizzle
7:10 AM 71.6 °F 66.2 °F 83% 30.11 in 7.0 mi Calm Calm - N/A   Light Drizzle
7:11 AM 71.6 °F 64.4 °F 78% 30.11 in 7.0 mi Calm Calm - N/A Rain Light Rain
7:50 AM 71.6 °F 55.4 °F 57% 30.12 in 6.0 mi ENE 5.8 mph - N/A Rain Light Rain
7:55 AM 71.4 °F 54.5 °F 55% 30.12 in 4.0 mi ENE 8.1 mph - 0.02 in Rain Light Rain
8:14 AM 71.6 °F 51.8 °F 50% 30.13 in 2.5 mi ENE 8.1 mph - N/A Rain Heavy Rain
8:19 AM 71.6 °F 53.6 °F 53% 30.13 in 3.0 mi ENE 8.1 mph - N/A Rain Light Rain
8:55 AM 72.7 °F 41.7 °F 33% 30.13 in 9.0 mi East 6.9 mph - 0.03 in   Light Drizzle
9:02 AM 73.4 °F 44.6 °F 36% 30.14 in 10.0 mi East 4.6 mph - N/A   Mostly Cloudy
9:13 AM 73.4 °F 55.4 °F 53% 30.14 in 8.0 mi East 10.4 mph - N/A Rain Light Rain
9:14 AM 73.4 °F 55.4 °F 53% 30.14 in 6.0 mi East 10.4 mph - N/A Rain Light Rain
9:26 AM 73.4 °F 66.2 °F 78% 30.14 in 4.0 mi ENE 4.6 mph - N/A Rain Light Rain
9:30 AM 73.4 °F 68.0 °F 83% 30.13 in 7.0 mi ENE 6.9 mph - N/A Rain Light Rain
9:32 AM 73.4 °F 66.2 °F 78% 30.13 in 9.0 mi ENE 5.8 mph - N/A   Mostly Cloudy
9:50 AM 75.2 °F 66.2 °F 73% 30.13 in 8.0 mi ENE 10.4 mph - N/A   Light Drizzle
9:55 AM 74.7 °F 66.2 °F 75% 30.13 in 6.0 mi ENE 9.2 mph - 0.02 in   Drizzle
9:57 AM 75.2 °F 66.2 °F 73% 30.13 in 6.0 mi ENE 10.4 mph - N/A   Light Drizzle
10:04 AM 73.4 °F 68.0 °F 83% 30.13 in 5.0 mi East 16.1 mph - N/A   Light Drizzle
10:07 AM 73.4 °F 68.0 °F 83% 30.14 in 4.0 mi East 11.5 mph - N/A   Light Drizzle
10:10 AM 73.4 °F 68.0 °F 83% 30.14 in 3.0 mi ESE 4.6 mph - N/A Rain Light Rain
10:24 AM 73.4 °F 69.8 °F 88% 30.13 in 10.0 mi East 6.9 mph - N/A   Overcast
10:30 AM 73.4 °F 69.8 °F 88% 30.13 in 9.0 mi ENE 6.9 mph - N/A Rain Light Rain
10:40 AM 73.4 °F 68.0 °F 83% 30.13 in 10.0 mi ENE 9.2 mph - N/A   Overcast
10:53 AM 75.2 °F 69.8 °F 83% 30.13 in 10.0 mi Calm Calm - N/A   Light Drizzle
10:55 AM 75.0 °F 69.6 °F 83% 30.13 in 10.0 mi Variable 6.9 mph - 0.01 in   Light Drizzle
11:03 AM 75.2 °F 68.0 °F 78% 30.12 in 10.0 mi ESE 6.9 mph - N/A   Scattered Clouds
11:22 AM 77.0 °F 66.2 °F 69% 30.12 in 10.0 mi ENE 10.4 mph - N/A   Light Drizzle
11:43 AM 75.2 °F 68.0 °F 78% 30.11 in 9.0 mi ENE 6.9 mph - N/A Rain Light Rain
11:55 AM 74.1 °F 69.3 °F 85% 30.11 in 9.0 mi East 4.6 mph - 0.01 in   Light Drizzle
11:56 AM 73.4 °F 69.8 °F 88% 30.11 in 10.0 mi East 4.6 mph - N/A   Light Drizzle
12:01 PM 75.2 °F 69.8 °F 83% 30.11 in 10.0 mi East 12.7 mph 18.4 mph N/A   Overcast
12:06 PM 75.2 °F 69.8 °F 83% 30.10 in 10.0 mi East 11.5 mph 18.4 mph N/A   Overcast
12:17 PM 75.2 °F 68.0 °F 78% 30.10 in 9.0 mi East 11.5 mph - N/A Rain Light Rain
12:47 PM 73.4 °F 71.6 °F 94% 30.09 in 7.0 mi ENE 8.1 mph - N/A Rain Light Rain
12:55 PM 72.9 °F 71.2 °F 95% 30.09 in 7.0 mi East 4.6 mph - 0.00 in Rain Light Rain
1:08 PM 73.4 °F 69.8 °F 88% 30.09 in 10.0 mi ENE 8.1 mph - N/A   Light Drizzle
1:10 PM 73.4 °F 69.8 °F 88% 30.08 in 10.0 mi East 9.2 mph - N/A   Light Drizzle
1:18 PM 75.2 °F 68.0 °F 78% 30.08 in 10.0 mi East 8.1 mph - N/A   Light Drizzle
1:20 PM 75.2 °F 68.0 °F 78% 30.08 in 10.0 mi East 6.9 mph - N/A   Overcast
1:26 PM 75.2 °F 68.0 °F 78% 30.07 in 10.0 mi East 9.2 mph - N/A   Drizzle
1:41 PM 75.2 °F 68.0 °F 78% 30.07 in 10.0 mi East 9.2 mph - N/A   Mostly Cloudy
1:45 PM 75.2 °F 66.2 °F 73% 30.07 in 10.0 mi East 12.7 mph - N/A   Light Drizzle
1:54 PM 75.2 °F 66.2 °F 73% 30.07 in 10.0 mi East 10.4 mph - N/A   Mostly Cloudy
1:55 PM 75.7 °F 66.0 °F 72% 30.07 in 10.0 mi East 9.2 mph - 0.00 in   Mostly Cloudy
2:33 PM 77.0 °F 64.4 °F 65% 30.05 in 10.0 mi East 8.1 mph - N/A   Light Drizzle
2:42 PM 77.0 °F 64.4 °F 65% 30.05 in 10.0 mi East 8.1 mph - N/A   Overcast
2:48 PM 77.0 °F 66.2 °F 69% 30.05 in 9.0 mi East 16.1 mph - N/A Rain Light Rain
2:55 PM 75.0 °F 68.2 °F 79% 30.05 in 6.0 mi East 10.4 mph - 0.00 in Rain Light Rain
3:04 PM 75.2 °F 69.8 °F 83% 30.06 in 10.0 mi ENE 10.4 mph - N/A   Mostly Cloudy
3:55 PM 77.9 °F 63.9 °F 62% 30.06 in 10.0 mi Variable 5.8 mph - 0.00 in   Scattered Clouds
4:55 PM 76.8 °F 60.8 °F 58% 30.06 in 10.0 mi ENE 5.8 mph - N/A   Scattered Clouds
5:55 PM 75.2 °F 61.3 °F 62% 30.07 in 10.0 mi East 9.2 mph - N/A   Scattered Clouds
6:55 PM 74.3 °F 61.2 °F 63% 30.09 in 10.0 mi Calm Calm - N/A   Mostly Cloudy
6:58 PM 73.4 °F 60.8 °F 65% 30.09 in 10.0 mi East 3.5 mph - N/A   Light Drizzle
7:07 PM 73.4 °F 60.8 °F 65% 30.09 in 10.0 mi Calm Calm - N/A   Scattered Clouds
7:55 PM 74.1 °F 61.2 °F 64% 30.10 in 10.0 mi East 10.4 mph - 0.00 in   Partly Cloudy
8:55 PM 73.0 °F 59.7 °F 63% 30.10 in 10.0 mi East 18.4 mph 23.0 mph N/A   Clear
9:55 PM 72.7 °F 60.3 °F 65% 30.12 in 10.0 mi East 10.4 mph - N/A   Clear
10:55 PM 71.4 °F 61.2 °F 70% 30.11 in 10.0 mi East 5.8 mph - N/A   Clear
11:55 PM 72.5 °F 61.9 °F 69% 30.11 in 10.0 mi East 4.6 mph - N/A   Scattered Clouds